Augusta, GA

6:09 AM EST on January 23, 2017 (GMT -0500)
Augusta Regional At Bush

Weather History for KAGS - January, 2013

Change the Weather History Date:

Thursday, January 10, 2013

  Actual Average Record
Temperature  
Mean Temperature 61 °F 45 °F  
Max Temperature 76 °F 57 °F 80 °F (1949)
Min Temperature 45 °F 33 °F 7 °F (1970)
Degree Days  
Heating Degree Days 4 20  
Month to date heating degree days 149 200  
Since 1 July heating degree days 1075 1175  
Cooling Degree Days 0 0  
Month to date cooling degree days 0 0  
Year to date cooling degree days 0 0  
Growing Degree Days 10 (Base 50)    
Moisture  
Dew Point 51 °F    
Average Humidity 72    
Maximum Humidity 100    
Minimum Humidity 43    
Precipitation  
Precipitation T in 0.13 in 1.80 in (1968)
Month to date precipitation 0.09 1.22  
Year to date precipitation 0.09 1.22  
Sea Level Pressure  
Sea Level Pressure 30.39 in    
Wind  
Wind Speed 5 mph (East)    
Max Wind Speed 15 mph    
Max Gust Speed 20 mph    
Visibility 6 miles    
Events Fog , Rain    
T = Trace of Precipitation, MM = Missing Value Source: NWS Daily Summary

Daily Weather History Graph

Daily Weather History Graph

Search for Another Location

Airport or City:

Trip Planner

Search our weather history database for the weather conditions in past years. The results will help you decide how hot, cold, wet, or windy it might be!

Date:

Astronomy

Jan. 10, 2013 Rise Set
Actual Time 7:32 AM EST 5:38 PM EST
Civil Twilight 7:05 AM EST 6:06 PM EST
Nautical Twilight 6:34 AM EST 6:36 PM EST
Astronomical Twilight 6:04 AM EST 7:06 PM EST
Moon 6:11 AM EST (1/10) 4:44 PM EST (1/10)
Length of Visible Light 11h 00m
Length of Day
10h 06m
Waning Crescent, 2% of the Moon is Illuminated
Jan 10
Waning Crescent
Jan 11
New
Jan 18
First Quarter
Jan 26
Full
Feb 3
Last Quarter

Hourly Weather History & Observations

Time (EST) Temp. Windchill Dew Point Humidity Pressure Visibility Wind Dir Wind Speed Gust Speed Precip Events Conditions
12:00 AM 48.2 °F - 48.2 °F 100% 30.41 in 3.0 mi Calm Calm - N/A   Clear
12:53 AM 48.0 °F - 46.0 °F 93% 30.40 in 5.0 mi North 4.6 mph - N/A   Clear
1:08 AM 48.2 °F - 46.4 °F 93% 30.40 in 1.5 mi Calm Calm - N/A   Partly Cloudy
1:10 AM 48.2 °F - 46.4 °F 93% 30.40 in 0.8 mi Calm Calm - N/A   Mist
1:29 AM 48.2 °F - 46.4 °F 93% 30.40 in 1.2 mi Calm Calm - N/A   Mostly Cloudy
1:32 AM 48.2 °F - 48.2 °F 100% 30.40 in 3.0 mi Calm Calm - N/A   Scattered Clouds
1:36 AM 48.2 °F - 48.2 °F 100% 30.41 in 1.8 mi Calm Calm - N/A   Scattered Clouds
1:46 AM 48.2 °F - 48.2 °F 100% 30.41 in 3.0 mi Calm Calm - N/A   Partly Cloudy
1:53 AM 48.9 °F - 48.0 °F 97% 30.41 in 5.0 mi Calm Calm - N/A   Clear
2:53 AM 48.0 °F - 46.9 °F 96% 30.41 in 5.0 mi Calm Calm - N/A   Clear
3:40 AM 48.2 °F - 46.4 °F 93% 30.42 in 1.8 mi NNW 3.5 mph - N/A   Clear
3:51 AM 48.2 °F - 46.4 °F 93% 30.42 in 3.0 mi NNW 5.8 mph - N/A   Clear
3:53 AM 48.0 °F - 46.9 °F 96% 30.42 in 4.0 mi NNW 4.6 mph - N/A   Clear
4:21 AM 46.4 °F - 46.4 °F 100% 30.41 in 1.8 mi Calm Calm - N/A   Clear
4:36 AM 46.4 °F - 46.4 °F 100% 30.40 in 3.0 mi Calm Calm - N/A   Clear
4:53 AM 46.9 °F - 46.0 °F 97% 30.40 in 4.0 mi Calm Calm - N/A   Clear
5:10 AM 46.4 °F - 46.4 °F 100% 30.40 in 2.5 mi Calm Calm - N/A   Clear
5:17 AM 46.4 °F - 46.4 °F 100% 30.40 in 6.0 mi Calm Calm - N/A   Clear
5:23 AM 46.4 °F 45.2 °F 46.4 °F 100% 30.40 in 1.8 mi NNW 3.5 mph - N/A   Clear
5:35 AM 46.4 °F 45.2 °F 46.4 °F 100% 30.40 in 3.0 mi NNW 3.5 mph - N/A   Clear
5:53 AM 48.0 °F - 46.9 °F 96% 30.40 in 4.0 mi NNW 3.5 mph - N/A   Clear
6:32 AM 46.4 °F - 46.4 °F 100% 30.42 in 0.8 mi Calm Calm - N/A   Clear
6:43 AM 48.2 °F - 46.4 °F 93% 30.41 in 0.5 mi Calm Calm - N/A Fog Fog
6:47 AM 48.2 °F - 46.4 °F 93% 30.41 in 1.0 mi Calm Calm - N/A   Clear
6:53 AM 46.9 °F - 46.9 °F 100% 30.41 in 10.0 mi Calm Calm - N/A   Clear
7:53 AM 46.0 °F - 46.0 °F 100% 30.42 in 10.0 mi Calm Calm - N/A   Clear
8:53 AM 54.0 °F - 51.1 °F 90% 30.44 in 6.0 mi Calm Calm - N/A   Clear
9:53 AM 60.1 °F - 53.1 °F 78% 30.45 in 9.0 mi Calm Calm - N/A   Clear
10:53 AM 69.1 °F - 55.9 °F 63% 30.43 in 10.0 mi East 8.1 mph - N/A   Partly Cloudy
11:53 AM 72.0 °F - 55.0 °F 55% 30.40 in 10.0 mi ENE 9.2 mph - N/A   Clear
12:53 PM 73.9 °F - 53.1 °F 48% 30.38 in 10.0 mi East 10.4 mph - N/A   Mostly Cloudy
1:53 PM 75.0 °F - 52.0 °F 44% 30.35 in 10.0 mi ESE 11.5 mph - N/A   Overcast
2:53 PM 75.0 °F - 52.0 °F 44% 30.33 in 10.0 mi ESE 8.1 mph - N/A   Scattered Clouds
3:53 PM 73.9 °F - 54.0 °F 50% 30.34 in 10.0 mi ESE 10.4 mph - N/A   Mostly Cloudy
4:53 PM 71.1 °F - 54.0 °F 55% 30.35 in 10.0 mi ESE 5.8 mph - N/A   Overcast
5:53 PM 70.0 °F - 54.0 °F 57% 30.36 in 10.0 mi ESE 6.9 mph - N/A   Overcast
6:53 PM 64.9 °F - 57.0 °F 75% 30.37 in 10.0 mi Calm Calm - 0.00 in   Overcast
7:49 PM 62.6 °F - 57.2 °F 82% 30.37 in 8.0 mi Calm Calm - 0.00 in Rain Light Rain
7:53 PM 62.1 °F - 57.9 °F 86% 30.37 in 9.0 mi Variable 4.6 mph - 0.00 in Rain Light Rain
8:53 PM 63.0 °F - 57.9 °F 84% 30.37 in 10.0 mi ESE 6.9 mph - 0.00 in   Overcast
9:48 PM 62.6 °F - 57.2 °F 82% 30.36 in 10.0 mi ESE 6.9 mph - N/A   Overcast
9:53 PM 63.0 °F - 57.9 °F 84% 30.35 in 10.0 mi ESE 6.9 mph - N/A   Overcast
10:53 PM 62.1 °F - 57.9 °F 86% 30.33 in 10.0 mi ESE 8.1 mph - N/A   Overcast
11:07 PM 62.6 °F - 57.2 °F 82% 30.33 in 10.0 mi ESE 5.8 mph - N/A   Overcast
11:44 PM 60.8 °F - 57.2 °F 88% 30.31 in 10.0 mi ESE 9.2 mph - N/A   Overcast
11:53 PM 61.0 °F - 57.9 °F 90% 30.30 in 10.0 mi SE 11.5 mph - N/A   Overcast